Litchfield, IL

9:01 PM CST on December 04, 2016 (GMT -0600)
Litchfield

Weather History for K3LF - November, 2013

Change the Weather History Date:

Sunday, November 3, 2013

  Actual Average (KALN) Record (KALN)
Temperature  
Mean Temperature 42 °F -  
Max Temperature 55 °F 57 °F 80 °F (2003)
Min Temperature 29 °F 41 °F 23 °F (2006)
Degree Days  
Heating Degree Days 24    
Moisture  
Dew Point 32 °F    
Average Humidity 69    
Maximum Humidity 98    
Minimum Humidity 41    
Precipitation  
Precipitation 0.00 in - - ()
Sea Level Pressure  
Sea Level Pressure 30.23 in    
Wind  
Wind Speed 3 mph (SE)    
Max Wind Speed 14 mph    
Max Gust Speed 18 mph    
Visibility 10 miles    
Events      
Averages and records for this station are not official NWS values.
T = Trace of Precipitation, MM = Missing Value Source: NWS Daily Summary

Daily Weather History Graph

Daily Weather History Graph

Search for Another Location

Airport or City:

Trip Planner

Search our weather history database for the weather conditions in past years. The results will help you decide how hot, cold, wet, or windy it might be!

Date:

Astronomy

Nov. 03, 2013 Rise Set
Actual Time 6:28 AM CST 4:55 PM CST
Civil Twilight 6:00 AM CST 5:23 PM CST
Nautical Twilight 5:29 AM CST 5:54 PM CST
Astronomical Twilight 4:57 AM CST 6:25 PM CST
Moon 6:32 AM CST (11/3) 5:10 PM CST (11/3)
Length of Visible Light 11h 22m
Length of Day
10h 26m
New Moon, 0% of the Moon is Illuminated
Nov 3
New Moon
Nov 9
First Quarter
Nov 17
Full
Nov 25
Last Quarter
Dec 2
New

Hourly Weather History & Observations

Time (CST) Temp. Windchill Dew Point Humidity Pressure Visibility Wind Dir Wind Speed Gust Speed Precip Events Conditions
12:15 AM 35.4 °F - 32.2 °F 88% 30.18 in 7.0 mi Calm Calm - N/A   Clear
12:35 AM 32.5 °F - 31.3 °F 95% 30.18 in 10.0 mi Calm Calm - N/A   Clear
12:55 AM 32.7 °F - 31.5 °F 95% 30.18 in 10.0 mi Calm Calm - N/A   Clear
1:15 AM 34.0 °F - 32.0 °F 92% 30.19 in 10.0 mi Calm Calm - N/A   Clear
1:35 AM 32.5 °F - 30.9 °F 94% 30.20 in 10.0 mi Calm Calm - N/A   Clear
1:55 AM 32.0 °F - 30.7 °F 95% 30.20 in 10.0 mi Calm Calm - N/A   Clear
1:15 AM 32.5 °F - 30.9 °F 94% 30.20 in 10.0 mi Calm Calm - N/A   Clear
1:35 AM 32.0 °F - 30.7 °F 95% 30.21 in 10.0 mi Calm Calm - N/A   Clear
1:55 AM 32.4 °F - 30.9 °F 94% 30.22 in 10.0 mi Calm Calm - N/A   Clear
2:15 AM 33.8 °F - 31.8 °F 92% 30.22 in 10.0 mi Calm Calm - N/A   Clear
2:35 AM 33.3 °F - 31.6 °F 94% 30.22 in 10.0 mi Calm Calm - N/A   Clear
2:55 AM 34.7 °F - 32.0 °F 90% 30.22 in 10.0 mi Calm Calm - N/A   Clear
3:15 AM 33.6 °F - 31.6 °F 92% 30.23 in 10.0 mi Calm Calm - N/A   Clear
3:35 AM 32.2 °F 28.9 °F 30.6 °F 94% 30.23 in 10.0 mi NNW 3.5 mph - N/A   Clear
3:55 AM 32.5 °F 29.3 °F 30.6 °F 92% 30.23 in 10.0 mi North 3.5 mph - N/A   Clear
4:15 AM 31.5 °F - 29.5 °F 92% 30.23 in 10.0 mi Calm Calm - N/A   Clear
4:35 AM 32.0 °F - 30.2 °F 93% 30.24 in 10.0 mi Calm Calm - N/A   Clear
4:55 AM 32.2 °F - 30.9 °F 95% 30.24 in 10.0 mi Calm Calm - N/A   Clear
5:15 AM 31.5 °F - 30.0 °F 94% 30.25 in 10.0 mi Calm Calm - N/A   Clear
5:35 AM 30.9 °F - 29.5 °F 94% 30.25 in 10.0 mi Calm Calm - N/A   Clear
5:55 AM 30.2 °F - 29.3 °F 96% 30.25 in 10.0 mi Calm Calm - N/A   Clear
6:15 AM 30.4 °F - 29.7 °F 97% 30.26 in 10.0 mi Calm Calm - N/A   Clear
6:35 AM 29.7 °F - 29.1 °F 98% 30.26 in 10.0 mi Calm Calm - N/A   Clear
6:55 AM 30.6 °F - 29.3 °F 95% 30.27 in 7.0 mi Calm Calm - N/A   Clear
7:15 AM 31.6 °F - 30.6 °F 96% 30.28 in 10.0 mi Calm Calm - N/A   Clear
7:35 AM 35.2 °F 32.4 °F 32.4 °F 89% 30.28 in 10.0 mi East 3.5 mph - N/A   Clear
7:55 AM 39.2 °F - 34.5 °F 83% 30.29 in 10.0 mi Calm Calm - N/A   Clear
8:15 AM 42.1 °F 40.2 °F 34.5 °F 75% 30.30 in 10.0 mi East 3.5 mph - N/A   Clear
8:35 AM 44.1 °F 41.5 °F 35.1 °F 71% 30.30 in 10.0 mi ESE 4.6 mph - N/A   Clear
8:55 AM 46.4 °F - 35.2 °F 65% 30.31 in 10.0 mi Calm Calm - N/A   Clear
9:15 AM 47.3 °F - 35.6 °F 64% 30.30 in 10.0 mi SE 5.8 mph - N/A   Clear
9:35 AM 48.6 °F - 35.1 °F 60% 30.30 in 10.0 mi SE 4.6 mph - N/A   Clear
9:55 AM 49.3 °F - 33.1 °F 54% 30.30 in 10.0 mi SE 4.6 mph - N/A   Clear
10:15 AM 50.5 °F - 33.8 °F 53% 30.30 in 10.0 mi SSE 5.8 mph - N/A   Clear
10:35 AM 50.4 °F - 32.7 °F 51% 30.30 in 10.0 mi South 8.1 mph - N/A   Clear
10:55 AM 51.6 °F - 32.9 °F 49% 30.29 in 10.0 mi SE 5.8 mph - N/A   Clear
11:15 AM 52.7 °F - 32.9 °F 47% 30.28 in 10.0 mi SSE 6.9 mph - N/A   Clear
11:35 AM 52.7 °F - 31.1 °F 44% 30.27 in 10.0 mi South 3.5 mph - N/A   Clear
11:55 AM 52.9 °F - 31.8 °F 45% 30.26 in 10.0 mi SSE 8.1 mph - N/A   Clear
12:15 PM 54.0 °F - 33.1 °F 45% 30.25 in 10.0 mi SE 4.6 mph - N/A   Clear
12:35 PM 53.6 °F - 32.2 °F 44% 30.25 in 10.0 mi SSE 5.8 mph - N/A   Clear
12:55 PM 54.1 °F - 32.4 °F 44% 30.23 in 10.0 mi SSW 10.4 mph - N/A   Clear
1:15 PM 54.5 °F - 32.2 °F 43% 30.22 in 10.0 mi South 9.2 mph - N/A   Clear
1:35 PM 54.3 °F - 32.2 °F 43% 30.21 in 10.0 mi SE 9.2 mph - N/A   Clear
1:55 PM 54.5 °F - 31.6 °F 42% 30.21 in 10.0 mi SSE 8.1 mph - N/A   Clear
2:15 PM 54.7 °F - 31.8 °F 42% 30.21 in 10.0 mi SE 11.5 mph - N/A   Clear
2:35 PM 54.9 °F - 31.5 °F 41% 30.20 in 10.0 mi SE 10.4 mph 17.3 mph N/A   Clear
2:55 PM 54.5 °F - 31.1 °F 41% 30.19 in 10.0 mi SE 12.7 mph - N/A   Clear
3:15 PM 54.1 °F - 30.7 °F 41% 30.20 in 10.0 mi SSE 10.4 mph - N/A   Clear
3:35 PM 53.2 °F - 31.8 °F 44% 30.20 in 10.0 mi SSE 8.1 mph - N/A   Clear
3:55 PM 52.7 °F - 31.6 °F 45% 30.19 in 10.0 mi SE 10.4 mph - N/A   Clear
4:15 PM 51.6 °F - 31.6 °F 46% 30.19 in 10.0 mi SE 9.2 mph - N/A   Clear
4:35 PM 50.2 °F - 32.2 °F 50% 30.18 in 10.0 mi SE 5.8 mph - N/A   Clear
4:55 PM 48.4 °F - 32.4 °F 54% 30.18 in 10.0 mi SE 8.1 mph - N/A   Clear
5:15 PM 47.5 °F - 32.7 °F 57% 30.18 in 10.0 mi SE 6.9 mph - N/A   Clear
5:35 PM 47.1 °F - 32.0 °F 56% 30.20 in 10.0 mi SE 5.8 mph - N/A   Clear
5:55 PM 45.5 °F 41.8 °F 32.0 °F 59% 30.20 in 10.0 mi SE 6.9 mph - N/A   Clear
6:15 PM 45.5 °F 41.3 °F 32.0 °F 59% 30.20 in 10.0 mi SE 8.1 mph - N/A   Clear
6:35 PM 45.9 °F 42.3 °F 32.0 °F 58% 30.20 in 10.0 mi SE 6.9 mph - N/A   Clear
6:55 PM 45.5 °F 42.5 °F 32.0 °F 59% 30.20 in 10.0 mi ESE 5.8 mph - N/A   Clear
7:15 PM 45.7 °F 41.5 °F 32.9 °F 61% 30.19 in 10.0 mi ESE 8.1 mph - N/A   Clear
7:35 PM 45.5 °F 40.8 °F 33.4 °F 63% 30.20 in 10.0 mi SE 9.2 mph - N/A   Clear
7:55 PM 45.1 °F 39.9 °F 33.8 °F 65% 30.19 in 10.0 mi SE 10.4 mph - N/A   Clear
8:15 PM 45.0 °F 39.7 °F 34.2 °F 66% 30.19 in 10.0 mi SE 10.4 mph - N/A   Clear
8:35 PM 45.1 °F 39.1 °F 34.3 °F 66% 30.19 in 10.0 mi SE 12.7 mph - N/A   Clear
8:55 PM 45.1 °F 39.1 °F 34.2 °F 65% 30.19 in 10.0 mi SE 12.7 mph - N/A   Clear
9:15 PM 45.5 °F 39.9 °F 34.5 °F 65% 30.19 in 10.0 mi SE 11.5 mph 17.3 mph N/A   Clear
9:35 PM 45.5 °F 39.6 °F 34.7 °F 66% 30.20 in 10.0 mi SE 12.7 mph 18.4 mph N/A   Clear
9:55 PM 45.5 °F 39.9 °F 34.9 °F 66% 30.20 in 10.0 mi SE 11.5 mph - N/A   Clear
10:15 PM 45.5 °F 39.9 °F 35.1 °F 67% 30.19 in 10.0 mi SE 11.5 mph - N/A   Clear
10:35 PM 45.9 °F 39.7 °F 34.9 °F 66% 30.18 in 10.0 mi SE 13.8 mph - N/A   Clear
10:55 PM 46.0 °F 41.0 °F 34.9 °F 65% 30.18 in 10.0 mi SE 10.4 mph - N/A   Clear